Regional Weather Roundup
Issued by NWS

Home | Current Version | Previous Version | Text Only | Print | Product List | Glossary Off
Versions: 1 2 3 4 5 6 7 8 9 10 11 12 13 14 15 16 17 18 19 20 21 22 23 24 25 26 27 28 29 30 31 32 33 34 35 36 37 38 39 40 41 42 43 44 45 46 47 48 49 50

000
ASUS44 KMEG 011000
RWRTN
TENNESSEE HOURLY STATE WEATHER ROUNDUP
NATIONAL WEATHER SERVICE MEMPHIS TN
500 AM CDT TUE SEP 01 2015

TNZ002-004-019-021-049-052-054-088>092-011100-
WEST TENNESSEE

CITY           SKY/WX    TMP DP  RH WIND       PRES   REMARKS
MEMPHIS INTL   MOCLDY    76  68  76 CALM      30.09R
NWS MEMPHIS      N/A     71 N/A N/A MISG        N/A
JACKSON        PTCLDY    65  64  97 CALM      30.10S FOG
DYERSBURG      PTCLDY    66  66 100 CALM      30.11R
UNION CITY     CLEAR    N/A N/A N/A CALM      30.10R
PARIS          CLEAR     63  63 100 CALM      30.12R
LEXINGTON      MOCLDY    64  64 100 CALM      30.11R VSB 1
$$

TNZ008-025-027-028-033-062-065-066-011100-
NORTH MIDDLE TENNESSEE

CITY           SKY/WX    TMP DP  RH WIND       PRES   REMARKS
NASHVILLE      CLEAR     68  65  90 CALM      30.13R
CLARKSVILLE    CLEAR     64  63  96 CALM      30.12R FOG
COOKEVILLE     CLEAR     61  61 100 CALM      30.14R
CROSSVILLE     CLEAR     64  60  87 CALM      30.18R
$$

TNZ061-075-076-078-094-096-097-011100-
SOUTH MIDDLE TENNESSEE

CITY           SKY/WX    TMP DP  RH WIND       PRES   REMARKS
FAYETTEVILLE     N/A     64  63  94 CALM      30.14R VSB 1/2
TULLAHOMA      CLEAR     63  61  94 CALM      30.15R
WINCHESTER     CLEAR     63  63 100 CALM      30.14R
COLUMBIA       CLEAR    N/A N/A N/A CALM      30.12R
SHELBYVILLE    CLEAR     66  66 100 CALM      30.14R
$$

TNZ017-018-042-046-047-011100-
NORTHEAST TENNESSEE

CITY           SKY/WX    TMP DP  RH WIND       PRES   REMARKS
TRI CITIES     PTCLDY    62  61  96 N3        30.16R
$$

TNZ012-013-036-069-073-074-011100-
CENTRAL EAST TENNESSEE

CITY           SKY/WX    TMP DP  RH WIND       PRES   REMARKS
KNOXVILLE      NOT AVBL
OAK RIDGE      PTCLDY    66  64  93 CALM      30.15R
GATLINBURG     SUNNY     63  61  94 CALM      30.14R
$$

TNZ083-085-099-011100-
SOUTHEAST TENNESSEE

CITY           SKY/WX    TMP DP  RH WIND       PRES   REMARKS
CHATTANOOGA    PTCLDY    68  66  93 CALM      30.13R
$$

SKY/WX REPORTED AS FAIR MEANS FEW OR NO CLOUDS BELOW
12 THOUSAND FEET.




USA.gov is the U.S. government's official web portal to all federal, state and local government web resources and services.